When you browse on this site, cookies collect data to enhance your experience and personalize the content and advertising you see.
Visit our Privacy Policy to learn more. By continuing to use the site, you agree to this use of cookies and data.
  • In Hungary
  • List of Countries
  • For 7 days
  • Water Temperature
  • Satellite Maps
  • Weather Map
  • News
  • Weather Widgets
  • user-avatar
    Login

    Hourly Weather Radzki

    Today, 27 May, Monday

    Time Temperature Precipitation Wind Pressure Humidity
    00:00 +12°C° 0 mm 3 mps 744 mmHg 91%
    01:00 +11°C° 0 mm 3 mps 744 mmHg 91%
    02:00 +11°C° 0 mm 3 mps 744 mmHg 91%
    03:00 +11°C° 0 mm 3 mps 744 mmHg 91%
    04:00 +12°C° 0 mm 3 mps 744 mmHg 91%
    05:00 +12°C° 0 mm 3 mps 744 mmHg 90%
    06:00 +14°C° 0 mm 4 mps 744 mmHg 85%
    07:00 +17°C° 0 mm 4 mps 744 mmHg 80%
    08:00 +18°C° 0 mm 4 mps 744 mmHg 75%
    09:00 +20°C° 0 mm 5 mps 744 mmHg 70%
    10:00 +21°C° 0 mm 5 mps 744 mmHg 65%
    11:00 +23°C° 0 mm 6 mps 744 mmHg 60%
    12:00 +23°C° 0.1 mm 6 mps 744 mmHg 58%
    13:00 +24°C° 0.1 mm 6 mps 743 mmHg 56%
    14:00 +24°C° 0.1 mm 6 mps 743 mmHg 54%
    15:00 +24°C° 0.2 mm 6 mps 743 mmHg 57%
    16:00 +25°C° 0.2 mm 5 mps 743 mmHg 61%
    17:00 +23°C° 0.2 mm 5 mps 743 mmHg 64%
    18:00 +22°C° 0.1 mm 4 mps 743 mmHg 70%
    19:00 +21°C° 0.1 mm 4 mps 743 mmHg 76%
    20:00 +19°C° 0.1 mm 3 mps 743 mmHg 82%
    21:00 +18°C° 0.1 mm 3 mps 743 mmHg 85%
    22:00 +17°C° 0.1 mm 2 mps 743 mmHg 88%
    23:00 +17°C° 0.1 mm 2 mps 743 mmHg 91%

    Tomorrow, 28 May, Tuesday

    Time Temperature Precipitation Wind Pressure Humidity
    00:00 +17°C° 0.1 mm 2 mps 743 mmHg 91%
    01:00 +17°C° 0.1 mm 2 mps 742 mmHg 91%
    02:00 +16°C° 0.1 mm 2 mps 742 mmHg 92%
    03:00 +16°C° 0 mm 2 mps 742 mmHg 92%
    04:00 +16°C° 0 mm 3 mps 742 mmHg 92%
    05:00 +16°C° 0 mm 3 mps 741 mmHg 93%
    06:00 +16°C° 1.2 mm 3 mps 741 mmHg 94%
    07:00 +17°C° 1.2 mm 3 mps 740 mmHg 94%
    08:00 +17°C° 1.2 mm 4 mps 740 mmHg 95%
    09:00 +18°C° 1 mm 4 mps 740 mmHg 92%
    10:00 +19°C° 1 mm 5 mps 740 mmHg 89%
    11:00 +20°C° 1 mm 6 mps 740 mmHg 86%
    12:00 +21°C° 0.1 mm 6 mps 740 mmHg 80%
    13:00 +23°C° 0.1 mm 5 mps 739 mmHg 74%
    14:00 +25°C° 0.1 mm 5 mps 739 mmHg 68%
    15:00 +23°C° 0.8 mm 5 mps 739 mmHg 72%
    16:00 +23°C° 0.8 mm 4 mps 739 mmHg 76%
    17:00 +22°C° 0.8 mm 4 mps 739 mmHg 80%
    18:00 +21°C° 1.1 mm 3 mps 739 mmHg 84%
    19:00 +20°C° 1.1 mm 3 mps 739 mmHg 87%
    20:00 +19°C° 1.1 mm 3 mps 739 mmHg 91%
    21:00 +18°C° 0.7 mm 2 mps 740 mmHg 91%
    22:00 +19°C° 0.7 mm 1 mps 740 mmHg 92%
    23:00 +16°C° 0.7 mm 0 mps 740 mmHg 92%

    Day after tomorrow, 29 May, Wednesday

    Time Temperature Precipitation Wind Pressure Humidity
    00:00 +18°C° 0.2 mm 1 mps 740 mmHg 93%
    01:00 +18°C° 0.2 mm 1 mps 740 mmHg 94%
    02:00 +16°C° 0.2 mm 1 mps 740 mmHg 96%
    03:00 +16°C° 0.7 mm 2 mps 741 mmHg 96%
    04:00 +15°C° 0.7 mm 2 mps 741 mmHg 97%
    05:00 +14°C° 0.7 mm 3 mps 741 mmHg 97%
    06:00 +13°C° 0.4 mm 4 mps 742 mmHg 97%
    07:00 +13°C° 0.4 mm 4 mps 742 mmHg 96%
    08:00 +12°C° 0.4 mm 5 mps 743 mmHg 95%
    09:00 +12°C° 0 mm 5 mps 743 mmHg 93%
    10:00 +12°C° 0 mm 5 mps 744 mmHg 92%
    11:00 +11°C° 0 mm 6 mps 744 mmHg 90%
    12:00 +12°C° 0 mm 5 mps 745 mmHg 87%
    13:00 +12°C° 0 mm 5 mps 745 mmHg 85%
    14:00 +13°C° 0 mm 5 mps 746 mmHg 82%
    15:00 +13°C° 0 mm 5 mps 746 mmHg 79%
    16:00 +14°C° 0 mm 4 mps 746 mmHg 76%
    17:00 +15°C° 0 mm 4 mps 747 mmHg 73%
    18:00 +14°C° 0 mm 4 mps 747 mmHg 75%
    19:00 +14°C° 0 mm 3 mps 747 mmHg 77%
    20:00 +13°C° 0 mm 3 mps 748 mmHg 78%
    21:00 +12°C° 0 mm 3 mps 748 mmHg 78%
    22:00 +11°C° 0 mm 3 mps 749 mmHg 77%
    23:00 +10°C° 0 mm 3 mps 749 mmHg 76%

    30 May, Thursday

    Time Temperature Precipitation Wind Pressure Humidity
    00:00 +9°C° 0 mm 3 mps 749 mmHg 77%
    01:00 +8°C° 0 mm 3 mps 749 mmHg 77%
    02:00 +7°C° 0 mm 3 mps 750 mmHg 78%
    03:00 +7°C° 0 mm 3 mps 750 mmHg 79%
    04:00 +5°C° 0 mm 3 mps 750 mmHg 80%
    05:00 +6°C° 0 mm 2 mps 750 mmHg 82%
    06:00 +8°C° 0 mm 2 mps 750 mmHg 78%
    07:00 +10°C° 0 mm 2 mps 750 mmHg 75%
    08:00 +13°C° 0 mm 2 mps 751 mmHg 71%
    09:00 +15°C° 0 mm 2 mps 751 mmHg 67%
    10:00 +16°C° 0 mm 2 mps 751 mmHg 62%
    11:00 +18°C° 0 mm 2 mps 751 mmHg 57%
    12:00 +19°C° 0 mm 2 mps 750 mmHg 55%
    13:00 +20°C° 0 mm 2 mps 750 mmHg 53%
    14:00 +21°C° 0 mm 2 mps 750 mmHg 50%
    15:00 +21°C° 0 mm 2 mps 750 mmHg 51%
    16:00 +21°C° 0 mm 2 mps 750 mmHg 53%
    17:00 +21°C° 0 mm 2 mps 750 mmHg 54%
    18:00 +19°C° 0 mm 2 mps 750 mmHg 60%
    19:00 +18°C° 0 mm 2 mps 750 mmHg 67%
    20:00 +16°C° 0 mm 1 mps 750 mmHg 73%
    21:00 +15°C° 0 mm 1 mps 751 mmHg 74%
    22:00 +14°C° 0 mm 1 mps 751 mmHg 76%
    23:00 +13°C° 0 mm 1 mps 751 mmHg 77%

    31 May, Friday

    Time Temperature Precipitation Wind Pressure Humidity
    00:00 +12°C° 0 mm 1 mps 751 mmHg 77%
    01:00 +12°C° 0 mm 1 mps 751 mmHg 77%
    02:00 +11°C° 0 mm 1 mps 751 mmHg 78%
    03:00 +11°C° 0 mm 1 mps 750 mmHg 78%
    04:00 +11°C° 0 mm 1 mps 750 mmHg 79%
    05:00 +10°C° 0 mm 0 mps 750 mmHg 79%
    06:00 +13°C° 0 mm 1 mps 750 mmHg 74%
    07:00 +15°C° 0 mm 1 mps 750 mmHg 69%
    08:00 +18°C° 0 mm 1 mps 750 mmHg 64%
    09:00 +20°C° 0 mm 1 mps 750 mmHg 60%
    10:00 +20°C° 0 mm 0 mps 750 mmHg 56%
    11:00 +21°C° 0 mm 0 mps 749 mmHg 52%
    12:00 +22°C° 0 mm 0 mps 749 mmHg 51%
    13:00 +24°C° 0 mm 1 mps 749 mmHg 50%
    14:00 +25°C° 0 mm 1 mps 748 mmHg 49%
    15:00 +24°C° 0 mm 1 mps 748 mmHg 51%
    16:00 +24°C° 0 mm 1 mps 748 mmHg 54%
    17:00 +24°C° 0 mm 1 mps 748 mmHg 57%
    18:00 +22°C° 0 mm 1 mps 747 mmHg 63%
    19:00 +21°C° 0 mm 1 mps 747 mmHg 70%
    20:00 +20°C° 0 mm 1 mps 747 mmHg 76%
    21:00 +19°C° 0.4 mm 1 mps 747 mmHg 80%
    22:00 +18°C° 0.4 mm 1 mps 747 mmHg 84%
    23:00 +18°C° 0.4 mm 1 mps 747 mmHg 88%

    1 June, Saturday

    Time Temperature Precipitation Wind Pressure Humidity
    00:00 +16°C° 0 mm 1 mps 747 mmHg 88%
    01:00 +16°C° 0 mm 1 mps 747 mmHg 89%
    02:00 +15°C° 0 mm 1 mps 747 mmHg 90%
    03:00 +15°C° 0 mm 2 mps 747 mmHg 90%
    04:00 +15°C° 0 mm 2 mps 747 mmHg 91%
    05:00 +15°C° 0 mm 2 mps 747 mmHg 91%
    06:00 +16°C° 0 mm 3 mps 747 mmHg 88%
    07:00 +17°C° 0 mm 3 mps 747 mmHg 84%
    08:00 +17°C° 0 mm 4 mps 748 mmHg 80%
    09:00 +19°C° 0 mm 4 mps 748 mmHg 76%
    10:00 +20°C° 0 mm 4 mps 748 mmHg 72%
    11:00 +21°C° 0 mm 5 mps 748 mmHg 68%
    12:00 +21°C° 0 mm 5 mps 749 mmHg 69%
    13:00 +21°C° 0 mm 6 mps 749 mmHg 70%
    14:00 +21°C° 0 mm 6 mps 749 mmHg 72%
    15:00 +20°C° 0 mm 6 mps 749 mmHg 72%
    16:00 +20°C° 0 mm 7 mps 749 mmHg 73%
    17:00 +20°C° 0 mm 7 mps 749 mmHg 74%
    18:00 +18°C° 0 mm 7 mps 750 mmHg 75%
    19:00 +17°C° 0 mm 6 mps 750 mmHg 77%
    20:00 +16°C° 0 mm 6 mps 751 mmHg 79%
    21:00 +15°C° 0 mm 6 mps 751 mmHg 80%
    22:00 +14°C° 0 mm 6 mps 751 mmHg 81%
    23:00 +13°C° 0 mm 5 mps 751 mmHg 83%
    Show more